This demonstration page uses our WeatherBlox Daily Observations layout. Learn more.

Left ArrowRight Arrow

39.08367, -84.50855

Hourly Observations for March 10, 2020

Temp ( °F °C ) Dew Point ( °F °C ) Humidity (%) Winds ( mph kmh ) Pressure ( in mb ) Visibility ( mi km ) Precip ( " mm )
12:53 am 00:53 Cloudy 60 15.6 46 7.8 60 60 S 13 20 30.10 1019 10 16 0.00 0.00
1:53 am 01:53 Cloudy 60 15.6 46 7.8 60 60 S 18 30 30.07 1018 10 16 0.00 0.00
2:53 am 02:53 Cloudy with Rain 58 14.4 50 10 75 75 SSW 14 22 30.06 1018 7 11 0.02 0.51
3:53 am 03:53 Cloudy with Light Rain 56 13.3 52 11.1 87 87 SSW 15 24 30.05 1018 9 14 0.03 0.76
4:53 am 04:53 Cloudy 57 13.9 52 11.1 83 83 SSW 16 26 30.02 1017 10 16 0.01 0.25
5:53 am 05:53 Cloudy with Light Rain 57 13.9 52 11.1 83 83 SSW 21 33 30.02 1017 10 16 0.00 0.00
6:53 am 06:53 Cloudy with Rain 55 12.8 53 11.7 93 93 SSW 12 19 30.03 1017 4 6 0.14 3.56
7:53 am 07:53 Cloudy with Rain 55 12.8 53 11.7 93 93 S 12 19 30.02 1017 4 6 0.07 1.78
8:53 am 08:53 Cloudy with Light Rain 56 13.3 54 12.2 93 93 SSW 15 24 30.01 1016 5 8 0.06 1.52
9:22 am 09:22 Cloudy with Light Rain 57 13.9 55 12.8 93 93 SSW 17 28 30.02 1017 5 8 0.01 0.25
9:53 am 09:53 Cloudy with Light Rain 57 13.9 55 12.8 93 93 SSW 16 26 30.03 1017 10 16 0.02 0.51
10:53 am 10:53 Cloudy 59 15 54 12.2 83 83 WNW 14 22 30.08 1019 8 13 0.00 0.00
11:53 am 11:53 Cloudy 56 13.3 50 10 81 81 WNW 10 17 30.12 1020 10 16 N/A
12:53 pm 12:53 Cloudy 57 13.9 50 10 78 78 W 9 15 30.14 1021 10 16 N/A
1:53 pm 13:53 Cloudy 55 12.8 47 8.3 74 74 NW 10 17 30.16 1021 10 16 N/A
2:00 pm 14:00 Cloudy 55 12.8 47 8.3 74 74 NW 12 19 30.16 1021 10 16 N/A
2:53 pm 14:53 Cloudy 55 12.8 47 8.3 74 74 WNW 5 7 30.15 1021 10 16 N/A
3:22 pm 15:22 Cloudy 54 12.2 47 8.3 77 77 W 9 15 30.16 1021 10 16 N/A
3:32 pm 15:32 Cloudy 54 12.2 47 8.3 77 77 W 9 15 30.17 1022 10 16 N/A
3:53 pm 15:53 Cloudy 55 12.8 47 8.3 74 74 W 9 15 30.16 1022 10 16 N/A
4:53 pm 16:53 Cloudy 55 12.8 47 8.3 74 74 W 8 13 30.16 1021 10 16 N/A
5:53 pm 17:53 Cloudy 53 11.7 46 7.8 77 77 NNW 9 15 30.17 1022 10 16 N/A
6:53 pm 18:53 Cloudy 52 11.1 45 7.2 77 77 NW 13 20 30.19 1022 10 16 N/A
7:53 pm 19:53 Cloudy 50 10 43 6.1 77 77 NNW 12 19 30.20 1023 10 16 N/A
8:53 pm 20:53 Cloudy 50 10 43 6.1 77 77 NW 6 9 30.22 1024 10 16 N/A
9:48 pm 21:48 Cloudy 48 9 43 6 82 82 NNW 12 19 30.24 1024 10 16 N/A
9:53 pm 21:53 Cloudy 49 9.4 42 5.6 77 77 NNW 9 15 30.24 1024 10 16 N/A
10:53 pm 22:53 Cloudy 47 8.3 41 5 80 80 NNE 8 13 30.23 1024 10 16 N/A
11:53 pm 23:53 Cloudy 47 8.3 41 5 80 80 N 7 11 30.23 1024 10 16 N/A

Powered by AerisWeather